This demonstration page uses our WeatherBlox Daily Observations layout. Learn more.

Left ArrowRight Arrow

Hourly Observations for November 6, 2015

Temp ( °F °C ) Dew Point ( °F °C ) Humidity (%) Winds ( mph kmh ) Pressure ( in mb ) Visibility ( mi km ) Precip ( " mm )
12:13 am 00:13 Cloudy with Heavy Rain 66 18.9 62 16.7 87 87 S 6 9 29.97 1015 2 3 0.10 2.54
12:19 am 00:19 Cloudy with Rain 65 18.3 62 16.7 90 90 S 3 6 29.97 1015 3 5 0.11 2.79
12:53 am 00:53 Cloudy with Light Rain 65 18.3 63 17.2 93 93 Calm 29.95 1014 7 11 0.16 4.06
1:53 am 01:53 Cloudy 66 18.9 63 17.2 90 90 Calm 29.91 1013 10 16 0.01 0.25
2:53 am 02:53 Cloudy with Heavy Rain 67 19.4 64 17.8 91 91 SW 8 13 29.93 1014 2 3 0.09 2.29
3:08 am 03:08 Cloudy with Light Rain 66 18.9 64 17.8 93 93 SW 6 9 29.94 1014 4 6 0.04 1.02
3:35 am 03:35 Cloudy with Heavy Rain 66 18.9 65 18.3 96 96 SW 5 7 29.94 1014 2 3 0.14 3.56
3:40 am 03:40 Cloudy with Heavy Rain 66 18.9 65 18.3 96 96 SW 5 7 29.94 1014 2 2 0.18 4.57
3:48 am 03:48 Cloudy with Heavy Rain 66 19 64 18 94 94 WSW 3 6 29.94 1014 1 1 0.30 7.62
3:53 am 03:53 Cloudy with Heavy Rain 66 18.9 65 18.3 96 96 WNW 6 9 29.93 1014 1 1 0.40 10.16
3:58 am 03:58 Cloudy with Heavy Rain 66 18.9 65 18.3 96 96 WNW 12 19 29.94 1014 1 2 0.10 2.54
4:03 am 04:03 Cloudy with Heavy Rain 65 18.3 64 17.8 97 97 W 7 11 29.94 1014 1 2 0.20 5.08
4:31 am 04:31 Cloudy with Heavy Rain 65 18.3 64 17.8 97 97 WSW 6 9 29.94 1014 2 3 0.44 11.18
4:41 am 04:41 Cloudy with Rain 65 18.3 64 17.8 97 97 SW 5 7 29.94 1014 3 5 0.47 11.94
4:53 am 04:53 Mostly Cloudy with Light Rain 65 18.3 64 17.8 97 97 SSW 3 6 29.90 1013 9 14 0.47 11.94
5:53 am 05:53 Cloudy with Light Rain 65 18.3 64 17.8 97 97 VRB 5 7 29.88 1012 10 16 0.04 1.02
6:53 am 06:53 Cloudy 66 18.9 64 17.8 93 93 SSW 6 9 29.92 1013 10 16 0.01 0.25
7:22 am 07:22 Cloudy 66 18.9 63 17.2 90 90 SW 9 15 29.94 1014 10 16 0.00 0.00
7:53 am 07:53 Cloudy with Light Rain 66 18.9 62 16.7 87 87 SW 10 17 29.94 1014 10 16 0.00 0.03
8:08 am 08:08 Mostly Cloudy 65 18.3 62 16.7 90 90 SW 9 15 29.97 1015 10 16 0.00 0.03
8:15 am 08:15 Mostly Cloudy 66 18.9 62 16.7 87 87 SW 7 11 29.97 1015 10 16 0.00 0.03
8:37 am 08:37 Mostly Cloudy 66 18.9 63 17.2 90 90 SW 9 15 29.97 1015 10 16 0.00 0.03
8:53 am 08:53 Partly Cloudy 66 18.9 63 17.2 90 90 SW 8 13 29.96 1015 10 16 0.01 0.25
9:53 am 09:53 Mostly Sunny 67 19.4 63 17.2 87 87 SW 7 11 29.98 1015 10 16 0.00 0.00
10:53 am 10:53 Mostly Cloudy 69 20.6 62 16.7 78 78 WSW 8 13 30.00 1016 10 16 0.00 0.00
11:53 am 11:53 Partly Cloudy 70 21.1 59 15 68 68 SW 9 15 30.00 1016 10 16 0.00 0.00
12:53 pm 12:53 Mostly Cloudy 70 21.1 58 14.4 66 66 W 8 13 30.01 1016 10 16 0.00 0.00
1:53 pm 13:53 Sunny 68 20 47 8.3 47 47 W 9 15 30.02 1017 10 16 0.00 0.00
2:53 pm 14:53 Sunny 66 18.9 46 7.8 49 49 WNW 8 13 30.03 1017 10 16 0.00 0.00
3:53 pm 15:53 Sunny 64 17.8 44 6.7 48 48 WNW 12 19 30.05 1018 10 16 0.00 0.00
4:53 pm 16:53 Sunny 61 16.1 47 8.3 60 60 WNW 10 17 30.07 1018 10 16 0.00 0.00
5:53 pm 17:53 Clear 56 13.3 47 8.3 72 72 NW 7 11 30.08 1019 10 16 0.00 0.00
6:53 pm 18:53 Clear 56 13.3 47 8.3 72 72 WNW 12 19 30.11 1020 10 16 0.00 0.00
7:53 pm 19:53 Clear 55 12.8 44 6.7 67 67 WNW 9 15 30.13 1020 10 16 0.00 0.00
8:53 pm 20:53 Clear 54 12.2 45 7.2 72 72 WNW 7 11 30.14 1021 10 16 0.00 0.00
9:53 pm 21:53 Mostly Cloudy 52 11.1 45 7.2 77 77 Calm 30.16 1022 10 16 0.00 0.00
10:53 pm 22:53 Mostly Clear 52 11.1 43 6.1 72 72 NNW 9 15 30.17 1022 10 16 0.00 0.00
11:53 pm 23:53 Clear 49 9.4 43 6.1 80 80 NNW 7 11 30.18 1022 10 16 0.00 0.00

Powered by AerisWeather